CST,Max TemperatureF,Mean TemperatureF,Min TemperatureF,Max Dew PointF,MeanDew PointF,Min DewpointF,Max Humidity, Mean Humidity, Min Humidity, Max Sea Level PressureIn, Mean Sea Level PressureIn, Min Sea Level PressureIn, Max VisibilityMiles, Mean VisibilityMiles, Min VisibilityMiles, Max Wind SpeedMPH, Mean Wind SpeedMPH, Max Gust SpeedMPH,PrecipitationIn, CloudCover, Events, WindDirDegrees
2013-11-1,59,48,36,37,33,27,76,53,30,30.11,29.90,29.70,10,10,10,43,16,55,0.01,2,Rain,307
2013-11-2,59,44,28,31,25,19,85,54,23,30.25,30.15,30.01,10,10,10,16,9,25,0.00,0,,256
2013-11-3,61,51,41,35,31,27,60,47,33,29.99,29.75,29.60,10,10,10,31,17,45,0.00,0,,171
2013-11-4,54,43,32,36,32,26,79,62,45,30.15,29.96,29.68,10,10,9,23,9,28,0.00,0,,28
2013-11-5,42,37,32,37,34,26,96,85,73,30.16,30.00,29.86,10,6,2,25,16,32,0.97,8,Rain-Snow,33
2013-11-6,46,38,30,32,29,26,92,73,53,30.34,30.25,30.14,10,10,10,22,7,26,0.00,5,,284
2013-11-7,51,41,30,30,28,26,85,62,38,30.47,30.37,30.21,10,10,8,13,7,16,0.00,0,,285
2013-11-8,60,48,36,38,33,31,82,60,37,30.18,29.91,29.74,10,10,10,21,8,29,0.00,0,,183
2013-11-9,60,47,33,35,31,29,82,56,29,30.36,30.18,29.98,10,10,10,13,4,16,0.00,0,,7
2013-11-10,53,43,32,40,32,26,82,66,50,30.40,30.30,30.16,10,10,10,17,8,24,0.00,2,,164
2013-11-11,45,33,20,42,26,7,100,73,46,30.82,30.39,30.12,10,9,3,28,17,36,T,4,Snow,12
2013-11-12,37,23,9,13,9,6,91,62,32,30.93,30.79,30.57,10,10,10,15,6,18,0.00,0,,218
2013-11-13,58,42,26,36,25,13,68,52,35,30.54,30.22,29.96,10,10,10,23,12,32,0.00,0,,197
2013-11-14,61,46,30,38,33,27,82,62,42,29.99,29.93,29.90,10,9,2,25,6,31,0.00,0,Snow,136
2013-11-15,56,42,28,36,33,26,92,67,41,29.90,29.73,29.52,10,10,10,17,8,24,0.00,0,,181
2013-11-16,64,50,35,40,29,15,89,53,16,29.48,29.38,29.31,10,10,8,22,8,26,0.00,0,,232
2013-11-17,54,41,28,40,30,22,85,60,35,30.14,29.73,29.33,10,10,10,36,16,45,0.01,2,Rain,294
2013-11-18,58,42,26,24,20,13,75,46,17,30.27,30.18,30.13,10,10,10,18,8,24,0.00,0,,221
2013-11-19,60,46,32,33,27,21,63,48,33,30.13,29.93,29.78,10,10,10,24,13,36,0.00,0,,176
2013-11-20,63,50,36,34,31,26,76,54,32,29.98,29.78,29.70,10,10,10,20,8,25,0.00,0,,223
2013-11-21,38,28,17,28,15,11,84,70,55,30.68,30.37,30.01,10,8,2,33,24,41,0.01,7,Snow,359
2013-11-22,32,22,12,15,7,1,76,51,26,30.76,30.70,30.67,10,10,10,23,9,29,0.00,0,,316
2013-11-23,25,20,14,14,9,4,80,63,46,30.90,30.81,30.71,10,10,10,15,7,20,0.00,0,,49
2013-11-24,35,24,12,19,13,5,80,62,43,30.71,30.44,30.15,10,10,10,18,11,28,0.00,3,,189
2013-11-25,46,34,21,26,21,17,88,63,37,30.30,30.19,30.10,10,10,10,20,9,24,0.00,4,,276
2013-11-26,34,22,10,21,12,1,81,53,25,30.50,30.41,30.28,10,10,10,26,12,32,0.00,1,,335
2013-11-27,41,24,7,23,12,3,80,57,34,30.49,30.26,30.07,10,10,10,21,9,28,0.00,0,,215
2013-11-28,35,28,21,23,19,15,88,70,51,30.49,30.37,30.13,10,10,9,18,9,23,0.00,2,,38
2013-11-29,49,34,18,28,21,14,84,63,42,30.47,30.28,30.13,10,10,10,16,7,23,0.00,0,,179
2013-11-30,61,42,22,29,22,20,92,58,23,30.17,30.13,30.08,10,10,8,8,2,12,0.00,0,,260